Theta_e
308 313 317 319 320 320 321 322 319 322 323 322 323 319 319 321 321 320 319 322 336 343 345 348 348 348 353 355 355 356 355 361 365 359 356 355 350 352 353 347 343 340 338 336 337 338 336 333 333 334 336 341 345 344 344 340 336 333 333 333 336 337 338 337 337 336 335 334 333 331 329 328 329 327 327 328 329 335 341 342 342 342 341 341 339 338 338 339 338 337 336 337 335 331 331 333 334
311 317 319 320 320 320 322 322 321 321 320 321 320 319 321 323 321 320 322 327 337 342 345 347 348 350 351 352 353 355 356 354 354 355 353 351 351 352 350 346 343 340 338 335 335 336 335 334 332 334 337 342 346 345 344 343 338 334 334 333 336 338 338 337 336 336 335 335 334 333 331 331 330 330 330 330 332 335 339 341 342 341 341 341 340 340 340 340 339 338 338 337 336 332 330 332 333
309 313 316 319 320 318 319 320 324 321 318 319 317 321 321 320 320 321 326 330 337 341 346 347 349 349 350 356 355 358 358 351 350 351 351 352 353 350 349 346 342 340 337 335 333 334 334 333 333 334 337 342 347 345 344 343 339 335 334 333 335 338 337 337 336 335 335 334 334 334 333 332 330 330 329 330 332 333 337 340 341 341 341 340 340 340 340 341 339 339 338 336 335 331 328 330 331
307 310 314 317 318 317 319 320 328 325 318 318 316 321 319 320 326 325 328 328 330 339 347 348 352 349 350 358 354 356 356 351 351 351 352 352 352 350 347 345 342 339 336 333 333 332 333 333 333 334 338 343 346 346 344 342 340 336 335 334 334 337 337 336 336 335 335 334 334 334 333 331 328 326 325 325 326 327 333 338 340 340 340 339 339 339 340 340 339 339 338 336 334 328 325 328 330
307 311 312 315 318 318 319 320 324 322 318 319 317 320 319 319 327 329 330 326 327 340 347 348 352 349 348 353 350 355 356 352 352 351 351 352 351 349 346 344 341 338 335 333 332 331 334 335 333 335 339 343 345 345 344 342 341 338 335 333 334 336 336 336 335 335 334 334 334 333 331 329 325 323 322 322 323 325 330 335 337 338 338 338 338 338 339 339 339 339 337 336 333 328 324 327 330
310 312 310 313 318 317 319 321 321 320 318 319 316 318 317 316 326 329 328 327 333 344 347 349 351 350 351 349 348 353 354 353 352 350 351 352 350 348 345 343 340 338 335 333 331 331 336 335 332 336 340 341 342 344 343 343 342 339 335 333 333 336 336 335 334 334 333 333 333 331 329 326 324 324 324 325 325 326 329 332 334 336 337 337 337 337 338 339 339 338 336 335 332 330 327 326 328
312 314 315 316 318 317 321 323 321 322 320 318 317 318 317 316 324 326 326 326 336 347 347 349 348 353 355 350 352 351 351 353 351 351 351 351 349 346 344 342 340 337 334 332 330 331 334 331 329 335 339 339 340 340 341 342 341 339 336 333 333 336 336 335 334 334 334 333 332 329 326 324 324 327 328 328 326 326 327 331 332 334 336 336 336 336 337 338 338 337 334 333 331 329 328 326 327
312 315 318 318 320 317 319 321 317 320 319 318 317 317 318 317 322 325 325 320 331 346 348 348 348 357 356 351 356 353 351 353 351 351 350 349 347 345 343 341 339 336 333 331 329 329 331 328 328 334 337 338 338 338 340 341 341 339 338 335 334 336 336 334 334 333 333 332 331 327 324 324 327 330 330 329 327 326 325 328 331 333 335 336 336 336 336 336 335 334 332 331 329 328 326 325 324
312 314 317 318 322 319 319 318 315 317 316 316 315 317 320 320 321 323 324 322 333 346 349 348 350 360 355 352 356 352 351 351 350 350 348 348 346 344 343 341 338 335 332 330 328 328 328 327 328 333 336 336 337 337 338 340 340 339 339 337 335 337 336 335 334 334 333 332 330 326 324 327 330 331 329 329 328 327 325 326 327 330 333 335 335 335 335 335 333 331 330 329 327 327 326 324 322
314 313 316 319 319 317 318 317 316 318 315 316 315 315 318 319 321 319 322 330 341 349 349 348 350 356 354 353 355 351 351 349 349 348 347 347 346 345 343 341 339 335 331 329 327 326 327 326 328 333 334 334 336 336 337 338 339 339 339 338 337 337 336 335 334 333 333 332 328 324 326 330 330 330 330 329 328 327 327 326 326 328 330 333 334 333 333 332 329 327 327 327 327 327 325 323 322
318 315 314 316 315 314 315 315 316 317 315 315 316 315 316 317 321 318 318 329 346 354 350 350 351 352 351 352 352 350 349 348 348 347 348 348 347 347 345 342 339 336 333 329 327 326 326 326 327 331 333 334 335 335 335 336 337 339 339 338 338 337 336 335 334 333 333 331 326 324 329 331 331 331 330 330 328 328 327 327 327 327 327 329 330 329 329 328 325 324 325 327 327 328 325 323 323
320 319 314 315 316 315 316 315 315 316 316 315 316 316 317 316 318 318 315 322 341 351 347 351 351 350 352 353 349 347 348 348 348 348 348 348 348 347 345 344 341 336 333 330 327 326 326 326 327 329 331 332 334 335 335 335 336 338 339 339 338 337 336 335 333 333 332 329 325 327 330 331 332 331 330 330 329 328 327 328 328 328 327 327 327 327 327 326 323 322 325 328 328 328 327 325 323
318 319 315 316 318 316 315 314 314 318 317 317 318 317 317 318 317 318 316 321 335 346 344 348 347 349 353 352 348 347 348 348 348 348 349 348 348 347 346 345 342 337 331 329 328 327 326 325 326 326 327 329 331 333 333 333 335 338 340 339 339 337 335 334 334 333 332 328 326 328 329 331 333 332 332 331 330 328 327 327 327 328 328 328 328 327 327 327 323 322 325 328 328 329 328 326 324
316 318 316 317 319 315 315 313 313 315 314 316 317 318 319 318 318 316 325 335 339 344 344 345 345 350 352 351 350 348 349 349 348 348 348 348 347 346 345 344 342 335 331 330 329 327 326 325 326 326 327 327 328 331 332 332 333 336 338 338 338 336 335 335 334 333 331 328 328 328 330 331 333 334 333 333 332 329 327 327 327 327 327 328 328 329 329 329 326 323 325 328 328 328 327 327 326
314 317 316 316 316 315 314 314 313 312 313 316 316 319 319 317 318 317 329 345 343 341 344 344 344 353 353 351 352 348 347 348 348 348 347 347 346 346 344 342 340 334 331 331 330 328 326 325 326 326 327 326 327 329 331 331 331 334 337 338 337 336 336 335 334 333 330 329 329 330 332 334 335 336 335 334 334 331 329 327 327 327 327 327 328 329 330 330 328 325 325 327 327 327 326 327 327
314 315 314 315 315 314 315 315 314 313 315 318 316 319 318 317 318 316 323 337 341 338 341 340 340 351 350 347 349 345 345 347 347 348 347 346 345 344 343 340 339 335 333 332 332 329 326 326 326 327 327 327 328 329 330 329 331 336 338 335 334 336 335 334 333 333 332 331 332 334 335 337 338 338 337 337 336 333 331 328 328 327 327 327 328 329 329 331 330 327 326 326 326 325 325 326 327
313 313 314 314 315 314 316 317 314 313 315 317 318 319 319 318 317 319 327 336 338 337 339 341 341 346 346 344 345 343 343 344 346 347 345 344 343 342 342 340 339 338 336 333 332 329 327 326 326 327 326 327 329 331 333 334 336 337 335 332 333 335 335 335 336 336 335 334 336 338 339 338 338 338 338 339 338 336 333 330 328 327 327 327 328 329 329 330 330 327 326 327 327 325 323 324 327
313 315 316 313 314 314 315 316 315 314 314 315 317 319 318 317 316 320 334 342 341 342 341 343 344 343 343 343 343 342 341 341 343 342 341 341 341 341 341 341 341 339 338 336 335 331 328 327 326 326 325 327 331 333 335 339 340 336 331 332 333 334 335 338 338 337 336 336 339 337 336 337 338 339 339 339 340 338 335 332 329 327 326 326 327 329 329 329 329 328 327 328 328 326 324 325 327
314 317 317 313 316 316 314 314 314 315 314 315 316 318 316 317 316 318 339 347 346 348 345 343 345 344 342 341 340 340 337 338 339 338 338 338 338 339 339 341 341 341 340 339 338 335 331 328 327 326 326 328 332 335 335 336 338 336 333 333 333 335 337 336 334 333 334 337 339 333 331 335 336 337 337 338 340 339 336 334 331 328 325 325 326 327 328 328 328 328 327 328 329 328 326 325 327
313 314 314 315 317 316 315 314 315 315 314 316 316 316 316 316 316 319 339 348 348 350 347 345 345 343 341 339 338 337 335 335 335 336 335 335 337 337 338 340 341 342 341 341 341 338 334 331 328 327 328 330 333 337 336 333 336 337 336 334 334 335 335 332 332 332 333 337 337 333 331 333 332 332 333 336 339 337 336 335 334 330 326 326 327 326 327 327 327 328 328 328 329 329 327 326 326
312 313 314 316 316 314 315 315 315 316 314 316 316 317 317 315 316 319 330 346 350 347 346 344 343 342 340 338 336 335 334 334 333 333 334 333 335 335 338 340 341 342 342 343 344 341 338 335 333 330 329 332 335 338 338 335 336 337 336 335 335 334 333 332 332 331 333 337 337 335 333 332 331 331 334 338 337 334 334 335 334 331 329 328 327 325 325 325 326 328 329 328 327 327 325 326 326
312 313 314 314 313 314 315 314 313 314 315 316 316 316 315 314 318 316 321 342 351 345 344 342 340 340 338 337 335 334 335 335 333 332 332 333 334 335 336 339 340 342 343 344 346 344 340 338 337 334 333 336 338 340 339 338 339 338 335 337 336 333 333 333 332 329 331 336 337 338 336 333 333 334 337 338 336 334 335 336 333 331 330 329 326 326 326 325 326 327 328 327 325 325 326 327 327
312 312 313 313 313 313 314 313 314 317 316 315 317 314 315 316 317 318 321 336 344 343 343 340 339 338 336 334 334 335 336 336 334 331 331 332 334 335 336 338 340 341 343 345 347 347 344 341 340 339 340 342 344 343 340 342 342 339 336 338 338 334 332 333 332 332 332 333 336 337 338 336 335 335 337 336 335 335 336 336 331 328 329 329 326 327 329 328 327 326 326 327 325 324 326 328 328
311 311 313 313 313 313 313 313 314 317 316 315 316 313 316 315 314 325 336 336 338 343 342 339 338 336 334 333 333 334 334 333 332 330 330 332 334 335 336 338 339 341 344 346 348 349 347 347 345 342 343 343 345 345 342 342 341 338 336 336 338 337 335 335 334 334 333 333 335 335 336 337 335 333 334 335 335 333 334 334 330 329 329 329 328 328 330 330 329 327 326 327 326 326 328 329 329
311 311 312 312 313 313 313 313 313 316 316 316 317 314 317 315 318 337 345 341 342 343 341 339 337 335 334 333 333 333 333 332 330 329 331 332 333 334 336 337 340 342 344 346 348 349 348 348 347 344 344 344 344 344 342 341 338 338 337 333 336 340 338 337 335 335 334 335 335 334 335 337 335 332 333 334 335 332 333 333 330 331 330 330 330 329 331 331 330 330 328 329 329 330 331 330 330
312 311 312 311 312 313 313 314 313 315 316 316 314 315 317 314 325 340 340 340 342 340 339 337 335 334 333 332 333 333 332 333 331 331 331 332 335 336 337 338 341 344 344 345 345 347 348 346 346 344 343 343 344 345 344 342 338 337 338 335 337 340 338 337 336 335 335 336 336 335 336 337 334 331 333 334 334 333 335 334 332 332 332 332 332 331 331 332 331 331 331 331 331 332 332 331 330
313 312 312 312 312 313 314 313 314 315 314 315 314 314 317 313 328 341 336 338 339 337 337 335 334 333 331 331 331 332 332 333 331 332 334 335 337 338 340 339 341 344 344 343 344 347 347 344 343 342 343 343 343 343 342 341 339 338 336 335 335 337 336 334 334 334 333 335 337 336 336 337 334 330 332 333 331 333 335 335 335 335 334 335 334 333 332 331 332 332 332 332 332 332 332 330 330
313 312 312 314 314 314 314 314 315 315 313 316 314 313 316 313 328 342 336 336 337 337 337 334 334 333 331 330 331 334 334 332 331 333 335 335 338 340 340 341 342 344 343 342 343 345 345 343 340 338 340 341 340 337 337 339 339 337 334 333 334 333 333 333 332 333 333 334 335 335 336 336 333 330 331 333 332 334 336 335 335 336 336 335 335 334 333 331 332 333 332 333 333 333 332 331 330
314 312 311 314 315 314 314 314 314 314 312 316 314 311 315 314 321 335 333 334 337 336 335 333 332 331 330 330 332 335 334 331 330 332 335 335 337 340 341 341 341 342 343 342 342 344 344 342 337 335 336 338 339 336 335 338 339 338 335 334 334 333 332 332 331 333 333 334 335 335 335 333 332 332 333 333 333 335 337 337 336 335 335 335 334 333 332 331 332 333 333 333 333 333 332 331 331
314 312 311 314 315 314 314 314 314 314 313 315 314 311 317 316 315 329 333 332 336 335 335 332 331 331 330 331 333 333 332 331 330 331 333 335 337 340 338 334 336 336 339 341 341 342 343 341 337 337 338 339 339 336 335 336 337 337 335 334 334 333 333 331 330 332 334 336 336 336 334 332 334 335 334 332 332 334 334 334 335 333 332 333 332 331 330 331 332 333 332 331 332 332 332 331 331
313 311 315 315 312 314 315 315 315 313 314 314 313 312 316 316 313 325 333 331 334 334 334 332 331 332 331 333 331 330 332 330 329 330 333 335 336 337 333 328 334 335 333 337 340 341 341 340 338 338 338 338 337 334 333 332 333 333 333 333 332 333 334 333 332 331 333 336 336 336 335 334 335 334 334 331 332 334 332 331 332 331 330 331 330 330 330 331 331 331 331 330 331 331 331 330 330
314 311 320 321 311 312 314 314 314 313 314 314 313 312 316 316 313 322 329 330 333 334 334 333 333 333 333 333 330 329 330 327 328 330 333 334 334 336 334 331 336 335 332 336 339 338 338 337 337 336 335 335 334 332 332 332 331 331 334 335 333 335 335 335 335 332 332 333 334 335 335 334 333 331 332 331 332 334 332 331 332 331 330 330 330 331 331 332 330 330 330 329 330 330 329 329 329
322 315 317 320 313 311 312 313 314 312 313 313 313 315 317 318 316 319 324 328 331 333 334 334 334 334 334 333 330 330 330 330 332 331 331 331 332 335 335 334 337 335 335 337 337 336 336 336 335 334 334 333 333 332 331 331 330 331 333 334 333 335 335 334 335 334 331 329 329 331 332 332 330 327 327 328 333 333 332 333 333 333 332 330 332 332 331 331 330 329 328 327 328 328 329 328 328
326 321 316 317 314 311 312 312 313 312 312 312 312 316 317 318 319 317 320 325 328 330 333 334 335 335 334 333 331 331 331 334 334 331 330 330 331 332 333 335 335 335 336 336 335 335 334 333 331 332 333 332 330 328 327 328 328 328 329 331 331 332 333 334 334 333 332 330 328 328 329 329 327 325 325 327 333 332 332 333 333 333 332 331 332 332 331 330 329 328 328 326 325 325 326 326 326
322 322 319 319 318 314 313 312 313 312 312 313 313 314 315 319 321 320 319 321 325 330 332 335 336 335 334 333 331 330 331 333 332 330 330 330 331 331 331 334 334 334 336 334 334 334 332 331 329 330 332 330 327 325 326 326 325 326 327 328 330 331 332 335 334 332 331 331 330 329 330 331 329 328 326 328 332 332 331 332 332 333 332 332 332 332 332 331 329 329 327 326 325 324 323 323 324
316 319 320 319 318 316 314 312 313 313 312 314 316 314 315 318 318 319 318 319 325 329 333 335 335 335 334 332 331 331 331 331 330 329 330 331 331 331 332 333 333 334 334 333 333 332 332 331 329 331 331 328 326 326 326 326 324 324 326 328 330 331 332 333 333 332 331 331 331 331 331 331 331 330 330 330 331 330 330 330 332 332 332 332 332 331 332 331 330 329 328 327 326 325 325 324 325
316 319 319 317 315 314 314 314 311 313 315 314 317 316 316 319 322 322 319 321 327 329 333 337 335 333 333 332 331 330 331 329 328 328 329 330 331 331 332 332 331 333 334 332 333 332 331 330 329 331 330 326 327 327 325 324 323 322 325 330 330 330 329 328 328 329 330 330 330 330 331 331 330 330 331 331 331 331 332 332 332 331 332 332 331 331 332 332 331 330 328 327 326 326 325 327 329
320 320 318 315 315 314 313 316 312 313 317 315 317 318 317 323 328 329 323 321 327 330 332 336 334 332 331 331 329 328 329 328 327 328 328 329 330 331 332 331 330 332 333 332 332 332 331 329 330 331 327 324 327 327 324 322 322 322 327 330 330 328 327 326 326 325 325 326 326 327 327 328 329 329 329 329 329 331 332 332 331 329 330 331 331 331 331 330 330 329 329 328 327 327 328 329 330
321 319 318 315 315 314 315 320 319 318 320 317 319 319 321 330 329 327 326 321 323 328 331 334 332 331 330 329 328 328 329 328 329 329 327 328 329 330 330 330 329 330 332 332 332 332 331 331 332 331 326 323 326 326 322 321 322 324 326 328 328 326 325 324 324 323 323 322 322 322 323 323 324 325 326 326 326 328 328 329 329 328 329 329 330 330 330 329 328 328 328 327 327 328 329 329 329
326 316 313 316 314 312 314 320 327 329 326 323 328 328 329 336 330 323 324 323 323 326 330 333 331 330 330 328 327 327 329 328 329 329 328 327 327 329 329 329 329 329 331 332 333 332 332 332 332 331 325 320 325 325 322 323 322 323 325 325 325 322 321 321 320 322 322 321 321 320 320 319 320 321 323 325 325 325 326 326 326 328 328 328 329 329 329 328 327 327 326 327 328 327 327 328 329
334 326 314 315 315 313 313 320 337 344 336 334 338 335 338 340 329 324 329 326 323 325 330 332 330 329 329 327 326 327 328 327 328 329 328 327 326 327 328 329 329 328 330 333 334 333 333 333 332 331 324 319 324 325 322 324 323 323 324 323 322 321 321 320 319 320 320 320 320 320 320 319 320 320 320 321 322 323 326 327 326 327 328 328 329 328 328 327 327 326 326 326 327 326 327 329 329
329 335 326 319 316 317 317 323 337 336 328 332 327 322 337 346 328 324 328 323 319 322 329 333 331 330 329 327 326 326 327 326 326 327 327 327 325 324 326 328 329 328 330 333 334 334 333 333 332 331 322 318 324 325 323 324 323 323 323 321 321 321 321 320 319 318 318 319 319 319 320 320 319 320 320 320 321 322 325 327 326 327 328 328 328 328 328 327 327 327 326 326 326 327 328 329 329
318 331 333 325 319 319 321 323 326 323 321 328 324 318 332 338 327 327 325 320 319 319 323 327 329 332 329 326 326 325 326 326 325 325 326 326 325 322 323 326 329 329 330 333 334 334 334 332 332 329 320 319 324 325 324 324 322 322 322 321 321 320 320 319 319 319 318 318 319 319 319 319 319 319 319 319 320 319 320 322 323 324 326 327 326 327 327 327 327 327 327 327 328 329 328 328 330
320 333 332 323 318 318 324 324 322 324 324 329 331 323 323 325 325 330 326 319 318 317 317 321 325 331 329 327 326 325 325 325 324 325 325 325 324 322 321 324 329 329 330 333 333 333 333 332 331 326 319 321 325 324 324 322 322 322 321 320 318 318 320 319 320 319 318 318 318 319 319 319 319 318 318 318 318 318 317 319 320 321 323 324 324 325 325 326 327 327 327 327 328 329 328 328 330
324 336 327 318 316 318 326 325 321 324 320 322 329 320 318 328 333 330 323 319 319 321 321 320 323 328 330 328 327 325 324 324 323 324 325 324 322 322 321 323 328 330 330 333 333 333 332 330 330 325 318 322 325 322 322 322 322 322 320 319 318 319 320 320 319 318 317 318 318 319 319 318 319 317 317 316 316 317 318 319 320 320 322 322 322 322 322 323 323 324 325 325 327 328 327 328 328
326 330 320 317 321 324 326 323 321 322 316 318 329 322 315 329 340 329 319 318 321 326 324 319 321 326 329 329 328 327 326 324 324 325 325 322 320 322 321 321 327 330 330 332 332 332 331 330 329 325 319 322 324 321 322 321 320 320 318 318 318 319 320 319 318 318 317 318 319 319 318 317 317 317 316 315 314 315 315 316 316 317 319 320 321 320 320 320 320 320 321 323 325 325 322 322 323
323 321 316 321 327 328 331 331 325 321 320 324 332 327 315 321 336 332 322 322 324 325 320 316 319 324 329 331 330 329 328 327 326 326 325 321 319 321 322 321 325 329 330 331 332 332 331 330 329 325 319 322 323 320 321 321 320 318 317 317 318 319 320 319 318 317 317 319 319 318 316 315 314 314 314 314 313 312 312 312 310 310 312 316 317 318 318 318 318 317 318 319 321 319 317 316 317
319 319 319 324 327 328 333 337 326 317 325 331 329 324 314 318 332 337 333 329 324 321 317 316 320 323 327 330 328 327 328 327 326 327 327 325 322 322 322 322 323 326 330 330 330 332 331 330 329 326 320 320 322 320 320 320 318 316 315 317 319 319 320 318 317 318 318 319 318 316 314 313 313 313 313 312 313 313 312 310 310 309 310 311 312 313 314 315 315 313 313 315 316 315 314 314 314
317 320 321 321 320 321 328 332 326 321 328 332 326 320 317 323 332 333 331 325 319 318 316 316 319 322 323 325 324 324 325 325 326 330 331 331 328 323 320 322 322 324 328 329 329 329 330 329 328 325 320 319 321 320 320 320 317 315 315 318 319 319 319 318 317 318 319 318 316 314 313 313 313 313 311 311 311 311 311 310 310 312 312 311 310 311 311 310 308 305 305 307 309 310 311 310 310
314 317 322 322 318 318 323 326 324 324 330 334 327 321 322 327 328 326 325 320 317 316 315 316 319 322 323 323 323 323 323 324 326 330 332 335 332 323 319 322 322 323 327 328 328 328 328 328 327 324 321 320 321 321 321 320 317 314 315 318 319 319 319 318 317 318 318 317 315 313 312 311 311 310 309 308 309 310 310 310 312 312 311 311 310 310 309 306 303 302 301 301 303 304 305 305 307
313 316 317 320 322 322 323 325 324 324 328 333 325 320 325 327 328 331 325 318 317 314 314 317 319 321 323 323 323 323 324 325 326 330 334 332 326 321 321 322 322 323 324 327 327 326 326 326 326 324 322 321 321 321 321 321 318 317 315 317 319 319 318 317 317 318 318 316 314 312 311 310 309 309 308 308 308 309 309 310 312 312 311 311 311 310 308 306 304 303 302 301 301 301 300 301 304
316 316 312 315 322 326 323 324 331 332 327 328 324 323 331 330 330 332 322 316 316 314 316 319 320 322 323 323 325 324 325 326 328 332 334 329 321 320 323 323 323 323 323 324 325 325 325 325 325 325 323 322 320 321 321 319 318 319 317 317 318 319 318 317 317 318 318 316 314 313 312 310 310 310 309 310 311 311 309 309 309 310 311 312 312 312 310 309 306 304 303 304 304 303 302 301 302
319 313 314 318 317 322 324 320 327 328 323 327 323 321 328 325 323 323 317 317 316 315 318 319 320 322 322 323 324 323 324 325 327 329 329 327 321 320 324 325 325 326 324 323 324 324 325 325 325 324 324 323 320 320 319 315 315 318 320 319 318 318 318 316 317 318 318 316 315 315 313 312 312 311 311 312 312 312 311 308 307 307 311 313 312 312 311 310 307 305 307 309 309 308 306 304 303
319 311 316 320 312 323 334 324 320 319 321 329 324 319 322 320 325 327 317 315 316 315 319 320 320 321 321 322 322 322 323 323 325 324 323 323 319 318 323 325 326 326 325 324 324 324 324 324 325 324 323 322 321 320 317 314 314 317 320 320 318 318 318 316 316 318 318 317 316 316 315 314 313 313 312 312 313 314 312 310 307 306 308 310 312 311 311 311 308 307 309 311 311 311 309 306 304
315 312 316 318 310 319 327 322 321 319 317 324 323 320 318 317 327 331 318 315 316 315 319 321 321 321 321 323 323 323 324 324 325 324 323 322 318 317 320 323 324 325 325 325 324 324 324 325 324 324 324 323 322 321 317 316 317 317 320 321 318 319 318 316 316 317 318 317 317 316 316 314 314 314 313 313 313 314 313 312 309 306 306 308 311 311 310 310 310 309 309 310 311 310 309 307 306
317 315 314 316 315 316 317 317 322 321 317 320 323 322 321 322 328 326 318 320 319 314 317 320 319 320 320 322 323 323 324 325 325 324 324 323 318 316 318 320 323 325 324 325 324 323 324 325 325 325 325 325 323 321 318 318 318 317 321 322 318 318 318 317 316 316 317 317 316 317 316 315 315 315 314 314 314 314 314 312 311 309 308 308 310 312 311 310 311 311 310 310 311 310 308 308 308
316 316 311 312 315 315 315 316 318 319 320 322 321 321 327 330 326 320 317 320 321 317 317 319 320 320 320 321 322 323 323 324 325 324 324 323 317 315 316 318 322 324 324 324 324 324 324 324 324 325 325 325 323 321 318 318 317 318 323 323 318 319 319 318 317 316 317 317 317 317 317 316 316 315 315 315 315 314 314 313 313 313 312 310 310 311 312 311 311 312 311 310 310 310 309 310 310
312 313 311 314 319 317 316 318 321 322 323 324 322 323 332 332 323 318 316 318 322 320 317 319 320 320 322 322 322 323 323 324 326 325 324 321 316 314 315 316 320 322 323 323 323 324 324 324 325 324 324 324 322 320 319 318 319 320 323 322 319 319 319 319 318 316 316 317 317 318 317 317 316 316 316 316 316 315 315 314 315 314 314 313 312 311 311 311 310 311 311 311 311 310 310 310 311
Wind_Speed
1 1 2 4 6 7 4 2 1 2 2 1 4 2 4 5 3 5 8 2 5 3 4 8 8 9 9 11 12 11 7 1 3 4 3 3 15 20 20 29 33 32 31 26 23 21 20 20 19 19 19 19 20 20 21 21 22 23 22 22 21 21 20 20 18 17 16 15 15 15 15 15 15 14 14 13 13 12 12 11 11 12 12 13 15 15 15 15 14 14 14 14 13 13 13 14 15
2 1 2 5 5 2 1 2 3 1 4 2 4 3 4 5 3 6 8 3 9 3 6 11 13 14 14 14 11 11 10 6 5 5 5 14 19 19 25 31 32 33 31 27 23 21 19 18 18 19 19 19 20 20 20 20 22 22 22 22 21 21 20 20 18 17 16 15 14 13 13 13 14 13 13 12 12 11 11 11 11 11 12 13 14 15 14 14 14 15 15 14 13 13 13 14 15
4 4 3 4 2 1 1 2 3 2 4 2 5 3 4 5 5 7 7 7 13 9 9 9 10 7 8 10 6 7 6 6 11 9 9 17 15 17 24 26 30 31 30 28 24 22 20 18 18 18 18 19 19 20 20 20 21 22 22 21 21 21 20 20 18 17 15 14 13 12 12 12 12 13 12 12 11 11 12 12 11 11 12 12 14 14 12 13 13 14 14 13 13 13 13 14 16
4 4 3 2 2 1 2 2 3 4 3 4 4 5 4 4 5 6 7 5 11 10 7 6 7 4 5 13 6 6 7 6 10 9 8 12 16 22 26 26 28 29 29 27 24 22 20 18 18 17 18 18 19 19 19 20 21 21 22 22 22 21 20 20 18 17 14 13 13 12 12 11 11 11 11 11 10 11 12 13 12 11 11 12 13 12 12 12 12 13 14 12 11 12 12 14 16
3 4 4 0 3 0 2 1 2 4 4 4 2 5 4 5 5 5 5 2 3 9 8 5 5 2 6 8 3 5 7 7 8 9 10 14 24 29 28 29 29 28 28 25 23 21 19 18 17 17 17 17 18 18 18 19 20 21 21 22 22 21 20 20 18 16 14 13 13 12 11 11 11 11 11 11 11 10 11 12 12 11 11 13 12 11 12 12 13 13 12 11 10 11 11 13 15
3 4 2 2 1 1 2 1 1 3 6 5 3 5 5 9 7 5 2 4 7 9 10 7 7 6 5 3 2 4 8 10 9 10 16 20 27 30 30 30 28 27 27 24 23 20 18 17 17 17 17 17 17 18 18 19 20 21 21 22 22 22 21 19 18 16 14 14 13 13 12 11 11 11 12 12 11 11 11 12 12 12 11 12 11 11 12 13 13 13 11 10 10 10 11 11 12
5 5 1 1 2 1 4 3 4 5 6 6 4 6 7 10 7 5 4 4 8 6 8 9 11 10 4 2 3 3 9 13 12 17 25 27 28 29 29 29 28 27 26 24 23 20 19 17 18 18 17 17 17 17 18 19 20 20 21 23 23 22 20 19 18 16 15 14 14 13 12 12 12 12 12 12 12 11 11 11 11 11 11 11 10 10 11 12 12 10 9 8 8 8 8 9 10
4 2 0 3 2 2 3 3 4 5 5 3 4 7 9 9 8 3 2 1 6 5 7 7 9 10 3 4 4 3 12 19 22 28 33 31 30 28 27 28 28 27 26 25 22 20 18 17 18 18 18 17 17 17 17 18 19 20 21 23 23 22 20 19 17 16 15 14 14 13 13 13 13 13 13 12 12 11 11 11 10 10 10 11 10 9 9 9 9 7 7 7 7 7 7 8 10
2 0 1 3 1 2 1 4 4 4 5 7 7 9 10 8 10 5 3 3 8 7 5 4 4 9 3 8 7 4 13 25 33 34 34 32 31 28 26 28 28 27 26 24 22 20 18 17 17 17 17 17 17 17 17 18 18 20 21 22 23 22 20 19 17 16 15 15 14 13 14 13 13 13 13 12 12 11 11 10 10 9 9 10 10 9 8 8 7 6 6 7 7 7 7 8 10
1 1 0 2 2 2 3 3 3 4 5 8 9 13 12 8 8 3 4 7 9 7 4 3 8 11 9 10 6 4 15 30 35 31 31 32 30 28 26 27 28 28 27 24 22 20 18 17 17 17 17 17 17 17 17 18 18 19 20 21 22 21 20 18 18 17 16 15 14 14 14 13 12 12 12 12 12 11 11 10 9 9 9 9 9 9 8 8 7 7 7 8 8 8 8 8 11
2 2 1 2 2 1 4 3 4 5 6 8 9 13 10 7 5 1 6 7 9 9 7 7 11 12 10 7 3 7 20 30 31 29 30 31 29 29 27 26 28 29 28 26 23 20 19 18 17 17 17 17 17 17 17 17 17 18 19 20 21 21 20 18 17 16 16 15 14 14 13 12 10 11 11 11 11 11 11 10 9 8 8 8 9 8 8 9 8 8 9 8 9 9 9 9 11
1 3 2 2 1 3 4 3 6 7 7 8 8 8 0 6 4 3 6 6 9 10 6 5 8 9 9 4 2 6 17 24 28 30 30 30 29 29 27 26 27 28 28 27 25 22 20 19 18 18 17 17 17 17 17 17 17 18 18 20 21 20 19 18 16 16 15 15 14 14 12 11 10 10 9 9 9 9 10 10 9 9 8 8 8 8 9 9 9 9 9 9 9 9 10 9 9
2 2 4 1 4 3 4 2 6 6 6 6 5 6 1 6 5 5 6 7 7 5 1 7 12 8 7 4 3 4 11 20 27 32 32 31 29 28 26 25 26 28 28 28 27 24 22 21 20 18 17 17 17 17 16 16 17 17 18 19 20 19 18 17 15 15 15 15 14 13 12 10 10 9 8 8 8 8 9 9 9 8 8 8 8 8 9 9 8 8 8 8 8 8 9 8 7
3 2 4 1 2 2 4 3 5 4 5 7 4 7 5 3 3 4 9 8 5 5 4 8 13 11 7 4 3 2 8 21 28 31 30 29 27 26 25 25 27 29 30 29 27 26 24 23 21 19 18 17 16 16 16 16 16 17 18 19 18 17 16 15 14 14 14 14 14 13 11 10 9 8 7 7 7 8 8 8 8 8 8 7 7 7 7 8 7 7 7 7 7 7 8 7 6
5 1 4 1 3 3 4 3 3 3 4 7 3 3 3 3 0 5 10 8 4 6 9 5 6 9 8 8 5 6 12 25 29 29 27 26 24 23 24 25 28 30 29 28 28 27 25 24 22 21 19 18 16 16 15 15 15 16 18 18 16 15 14 14 13 13 13 13 13 12 11 9 8 6 6 6 6 6 7 7 7 7 6 6 6 5 6 6 6 7 7 6 6 6 7 7 5
4 2 2 1 3 3 3 2 1 1 4 6 5 2 5 5 3 5 4 8 6 5 6 4 4 6 12 10 11 14 19 27 30 31 29 26 23 21 22 23 25 26 26 27 28 27 25 25 24 23 21 19 18 16 15 14 14 16 17 16 16 16 15 14 13 12 13 12 11 11 10 9 9 8 7 6 6 6 6 6 7 6 6 5 5 4 5 5 5 6 7 7 6 7 8 7 5
1 2 1 3 4 5 3 1 1 2 5 7 8 4 6 5 6 5 5 9 9 3 3 2 1 6 12 11 18 24 26 31 34 33 30 26 23 21 20 21 22 22 24 26 27 26 26 26 26 24 22 20 19 18 16 15 16 16 16 15 16 17 16 14 12 11 11 12 11 10 10 10 10 10 10 9 8 7 6 5 6 7 6 5 4 4 4 4 5 6 7 8 7 7 8 7 6
2 2 3 4 5 5 3 2 3 4 7 8 8 5 6 2 4 2 7 9 9 8 7 7 8 8 10 17 25 28 30 34 34 31 26 23 20 19 18 20 22 23 24 24 24 26 26 27 26 24 22 20 20 19 18 18 18 17 16 16 16 15 14 12 10 10 10 11 10 9 10 11 11 12 12 12 11 9 7 5 5 5 5 5 5 4 5 5 6 7 7 7 8 7 7 7 7
3 3 3 5 5 5 3 3 4 4 6 8 7 4 4 1 4 1 5 6 10 11 7 8 12 10 12 18 23 26 30 32 30 28 24 21 19 17 17 19 22 24 25 25 25 26 27 27 25 24 22 21 20 19 18 19 18 18 17 16 14 13 11 11 11 11 11 10 10 9 11 12 13 13 13 13 12 11 9 7 6 4 4 5 6 5 5 5 6 7 7 7 7 7 7 7 7
2 3 3 6 5 5 5 4 5 6 4 4 7 5 3 2 3 2 6 7 9 11 7 7 11 12 12 13 17 23 26 26 27 27 22 20 20 19 19 19 21 24 27 27 26 26 26 26 25 24 22 20 20 18 17 19 19 18 16 14 13 12 11 12 12 12 12 11 11 10 11 12 13 12 12 12 12 12 12 9 7 6 5 5 6 5 6 6 6 8 8 7 7 7 6 6 7
2 4 4 6 5 4 8 7 6 8 4 2 5 6 6 6 3 3 7 7 3 8 11 13 16 16 14 12 14 18 19 20 23 24 21 20 19 19 20 21 22 24 28 29 27 26 25 24 24 23 22 20 19 18 17 18 18 17 16 15 13 13 13 14 13 12 12 13 12 11 11 11 12 12 11 11 10 9 10 9 8 9 8 7 7 6 6 7 7 8 9 9 9 8 7 6 6
2 4 6 8 5 4 9 6 5 8 5 2 1 2 4 6 4 0 6 7 5 8 10 16 20 20 18 16 13 13 14 15 16 18 19 19 19 19 19 20 22 22 25 28 28 27 25 24 23 22 22 21 20 19 18 18 18 16 16 17 15 14 14 13 12 14 15 15 15 13 13 12 13 13 11 11 10 7 7 9 10 11 11 9 8 8 8 7 7 9 9 9 10 10 8 7 7
3 6 6 9 6 6 8 4 4 6 3 2 2 2 0 2 4 3 3 6 8 8 10 15 18 18 19 17 13 12 13 13 13 17 20 20 20 21 22 23 22 22 24 28 28 27 26 24 22 22 21 20 20 20 18 18 18 15 14 16 15 15 14 12 14 17 18 16 15 15 15 15 14 14 12 11 10 8 9 12 12 13 14 12 10 9 9 8 9 9 9 9 10 10 9 7 5
5 6 7 9 8 9 9 5 5 5 3 4 3 1 1 2 2 3 1 3 6 9 11 15 14 14 15 14 12 11 11 11 12 18 23 25 24 25 27 26 24 24 25 28 29 27 27 24 21 20 17 18 18 17 16 18 18 16 16 16 16 16 16 16 17 19 20 16 16 16 17 18 16 15 13 12 12 9 12 14 13 14 16 15 12 10 10 9 10 10 11 11 11 10 8 5 4
6 8 8 7 7 8 9 7 6 6 5 6 2 3 6 4 2 1 1 1 8 11 12 14 14 13 13 12 12 10 9 9 11 15 19 24 26 26 27 26 24 24 25 27 27 25 25 23 21 19 17 18 16 15 16 17 18 20 18 16 17 19 20 20 19 19 19 16 17 16 18 20 18 16 13 14 14 11 14 16 14 16 16 16 14 12 12 11 11 12 12 12 11 9 6 5 5
6 9 8 8 9 8 7 5 5 6 5 4 2 5 7 2 5 3 3 4 9 11 12 13 15 15 13 11 11 10 9 8 8 12 18 22 25 24 23 25 25 23 24 25 24 22 23 22 21 20 19 18 15 15 17 16 16 18 18 15 19 23 21 20 19 19 19 17 19 18 19 19 18 17 15 16 16 14 19 18 15 15 14 15 15 12 12 12 11 12 13 13 11 9 8 8 9
5 6 7 9 9 7 5 4 5 5 4 4 4 6 7 1 5 0 4 5 11 12 11 11 14 14 13 11 8 8 8 8 11 14 16 18 22 22 22 25 24 23 24 25 24 23 24 23 19 18 18 17 16 15 15 15 14 15 19 18 18 18 16 15 16 17 17 18 21 21 20 18 17 18 17 17 16 15 20 19 16 15 14 15 16 14 12 11 11 12 13 13 11 9 11 11 10
6 6 6 7 5 5 3 2 5 3 3 5 5 5 6 3 3 7 7 7 11 15 13 12 12 12 12 11 8 6 6 10 16 16 13 15 19 21 23 26 24 24 26 26 26 26 27 25 19 16 16 16 15 12 12 13 12 16 22 19 14 11 9 11 13 13 13 16 19 21 21 19 17 17 15 16 16 15 17 17 16 16 15 15 16 16 13 12 13 14 14 13 12 11 13 12 11
7 5 4 7 6 5 4 1 5 2 3 4 2 3 7 4 3 10 12 10 10 13 14 12 11 10 10 10 8 6 6 10 13 12 13 16 20 24 23 20 20 23 25 25 25 25 27 24 18 16 16 16 14 11 10 10 11 17 19 13 11 10 8 9 11 13 13 13 14 14 16 18 18 17 15 16 16 16 16 16 16 16 16 16 15 15 14 15 14 15 14 13 13 13 13 13 12
6 2 2 3 6 6 5 2 5 3 4 2 4 2 7 6 4 8 12 12 11 9 11 10 8 8 9 9 8 7 8 8 9 10 11 12 16 21 16 12 16 19 18 23 24 24 26 23 18 17 16 16 15 12 12 12 12 14 12 10 9 9 9 8 9 13 14 14 14 12 14 17 18 18 18 17 15 16 16 15 15 15 17 17 15 15 17 17 14 14 14 13 14 15 14 13 12
4 4 1 2 2 6 7 3 4 4 5 4 6 3 8 7 3 9 12 13 14 11 10 10 8 9 9 9 9 9 8 8 11 12 12 12 12 15 17 15 20 17 12 20 25 25 27 23 21 21 18 18 17 16 16 15 13 12 11 11 9 9 13 9 8 12 14 14 15 15 14 16 18 19 17 14 13 15 16 15 14 14 15 16 15 16 18 17 15 14 14 14 15 15 15 13 12
2 2 4 3 2 6 7 5 5 5 6 4 8 4 7 8 6 11 13 13 15 13 11 10 10 11 11 10 10 10 7 8 14 16 19 20 15 17 22 21 23 20 17 23 28 27 27 25 24 24 22 21 19 17 16 15 14 13 13 13 10 12 14 9 8 11 12 13 12 12 14 15 18 19 17 15 14 14 14 14 13 12 14 15 15 16 17 17 16 16 16 16 17 17 16 14 12
3 1 3 3 2 4 6 6 5 8 6 2 7 5 3 6 7 11 14 14 13 12 11 10 11 13 12 10 10 10 7 7 11 16 22 23 19 20 20 18 22 24 23 27 28 27 27 24 22 21 22 21 19 17 15 14 13 12 12 12 11 11 10 8 8 9 9 11 11 11 14 16 16 17 18 19 17 14 14 13 12 11 14 16 16 16 16 16 16 16 16 15 16 16 16 14 13
4 2 1 3 4 4 4 7 6 7 8 7 7 6 5 6 6 8 13 15 14 12 12 11 11 11 10 9 10 10 10 10 9 14 21 23 23 22 16 16 21 24 25 26 25 25 24 22 20 20 20 18 16 15 14 14 13 13 12 11 10 11 12 9 8 8 7 9 10 10 13 15 12 13 16 17 17 16 14 13 13 12 14 17 16 15 16 16 15 15 15 15 14 14 15 15 13
3 2 2 3 3 4 6 8 6 7 9 10 7 7 9 7 6 5 9 16 17 14 14 12 10 11 9 8 10 11 11 11 10 16 23 23 24 21 17 21 24 24 26 25 24 23 21 19 18 19 17 15 15 15 16 16 14 14 13 12 11 13 14 12 11 11 10 9 10 9 11 12 11 12 14 14 17 17 14 14 14 12 14 17 16 14 14 15 15 14 15 15 13 12 12 12 11
6 5 3 4 4 5 8 11 9 9 8 9 9 9 8 5 6 7 4 11 16 13 12 11 10 10 9 8 10 11 10 10 12 21 26 25 25 23 23 27 27 27 27 25 24 22 20 19 18 18 16 15 17 17 17 16 14 14 15 15 15 14 14 15 15 14 13 12 11 10 11 12 14 16 16 15 16 15 14 13 13 12 14 16 15 13 12 12 12 12 12 13 12 11 10 9 8
6 3 2 3 3 5 8 10 7 10 9 8 9 8 5 3 7 7 2 5 10 12 12 11 11 10 10 10 9 10 9 8 14 22 28 29 29 28 29 31 29 28 28 26 25 23 21 20 20 19 17 17 19 19 17 17 16 15 17 19 18 16 15 16 16 15 15 14 12 12 12 12 14 16 17 17 16 14 13 12 10 9 11 13 13 12 10 9 10 9 9 10 11 10 9 8 7
4 1 2 4 2 5 9 7 3 7 7 4 4 4 3 3 6 7 1 6 8 13 14 12 13 11 10 10 9 9 7 7 11 15 22 28 29 30 32 31 30 29 29 29 27 25 23 22 22 21 19 19 20 19 18 18 17 17 20 23 21 19 16 16 17 16 16 16 15 15 14 12 11 11 12 13 12 12 13 12 9 7 8 10 11 11 9 8 8 8 9 10 9 7 8 9 8
1 2 2 4 3 4 8 6 2 2 3 2 2 4 4 5 6 8 2 7 7 11 16 15 14 12 9 10 10 10 9 9 10 10 16 25 28 30 31 30 32 32 31 31 29 28 27 25 25 23 22 22 21 20 19 19 18 17 21 24 22 19 17 15 15 15 15 16 15 15 14 12 11 10 9 8 8 9 9 9 8 6 6 8 10 10 10 8 9 9 9 9 8 7 7 7 8
1 0 1 3 3 2 5 5 6 2 3 4 3 2 3 4 3 6 1 6 5 7 12 14 15 15 15 14 13 14 14 12 11 10 12 18 22 25 28 30 32 33 32 33 33 32 31 29 28 25 24 23 22 21 20 19 18 18 21 23 20 18 17 14 13 13 13 13 12 12 11 11 11 12 10 9 9 9 8 9 9 8 7 7 8 9 10 9 9 10 10 9 9 8 8 6 8
3 2 3 3 2 3 5 5 5 4 3 2 5 5 5 4 4 5 5 3 6 5 6 10 11 13 14 14 14 15 16 15 15 14 12 14 17 22 28 31 31 31 32 34 36 36 34 32 30 27 25 24 24 23 21 18 19 22 24 23 20 19 17 15 15 13 12 13 12 12 12 12 13 13 11 10 10 10 10 9 9 8 7 6 6 6 7 8 8 9 9 10 10 9 9 7 7
4 4 6 6 5 5 7 6 4 5 5 2 5 4 5 5 3 5 5 2 5 6 7 11 11 8 9 11 12 12 14 15 15 15 13 14 17 21 26 29 29 29 31 34 37 38 36 34 32 27 24 25 25 23 21 19 22 25 25 23 22 21 19 17 16 15 14 14 13 13 13 12 11 10 9 11 12 13 11 10 8 8 7 6 5 4 5 5 6 7 7 8 8 7 8 8 7
2 5 7 7 6 5 6 5 2 3 3 4 3 4 4 6 5 6 1 1 4 6 6 8 8 7 8 10 11 11 11 10 10 10 11 13 17 19 20 25 28 28 28 31 35 37 37 35 33 28 26 27 25 23 22 22 24 25 24 23 22 22 20 18 18 18 17 15 14 13 13 12 11 9 9 10 12 14 14 13 11 9 8 7 6 6 6 5 5 6 5 6 7 7 7 7 9
3 6 6 6 4 4 4 3 2 2 3 4 4 5 2 4 6 7 1 2 2 6 6 4 7 10 10 10 12 14 14 13 11 11 11 12 14 16 17 23 28 27 26 29 34 36 37 36 33 29 27 27 24 24 26 25 26 26 24 22 21 22 22 21 20 18 17 17 16 15 15 14 13 12 11 11 11 12 14 15 14 13 12 11 11 11 9 8 7 7 7 7 7 6 5 6 9
6 7 5 5 4 5 5 5 2 2 0 4 6 2 2 4 6 6 4 1 3 6 8 7 9 12 13 13 13 12 11 11 11 11 11 10 13 17 19 22 26 28 29 30 34 36 36 36 33 30 29 28 26 28 29 27 26 26 25 24 24 23 23 23 21 19 18 18 18 17 16 15 13 12 12 13 13 13 14 14 14 15 16 15 15 15 14 12 11 10 9 8 10 9 6 6 8
7 5 3 2 2 4 4 5 4 3 2 4 7 2 2 4 5 5 3 2 4 6 6 5 8 11 12 12 10 7 5 5 6 7 8 9 12 15 16 18 23 27 30 30 31 34 35 35 33 31 31 29 29 32 30 27 27 26 26 27 26 25 25 24 22 21 20 19 19 18 16 15 13 12 12 12 14 14 14 12 11 12 13 13 13 13 13 12 12 12 11 10 12 13 12 11 11
4 1 2 3 5 4 3 3 4 5 2 6 7 3 2 2 5 5 3 3 5 4 3 2 5 9 10 8 8 8 6 5 5 5 6 6 8 9 10 13 17 22 26 27 29 32 35 35 34 33 32 31 33 33 30 29 27 26 26 26 26 27 27 26 24 23 21 20 19 18 16 15 14 14 13 13 13 13 12 11 10 11 11 11 11 10 10 10 10 10 11 12 13 13 13 12 12
2 2 2 3 5 6 5 5 4 4 3 7 5 1 3 2 5 5 5 6 5 5 7 5 5 6 8 7 7 8 7 6 6 5 6 6 7 8 10 12 14 18 23 25 29 32 34 36 35 34 33 32 33 33 31 29 27 25 24 25 26 28 28 27 27 25 23 22 21 19 18 17 16 15 14 13 13 12 11 11 12 13 13 12 11 10 10 9 8 8 9 11 11 11 10 9 10
5 4 5 5 2 4 3 4 2 2 5 5 3 1 3 3 6 5 6 8 2 7 8 7 7 7 6 6 6 6 7 7 7 6 6 6 7 8 11 14 15 19 23 27 30 31 33 35 36 36 35 35 35 34 32 29 26 25 26 27 28 28 29 28 27 27 25 24 23 22 21 19 18 16 14 14 13 12 11 12 13 13 13 11 10 10 10 9 9 9 10 10 10 9 7 6 8
4 4 4 4 3 2 1 4 1 2 5 4 3 2 2 3 5 6 5 6 1 7 9 7 9 9 8 6 5 5 6 7 6 6 6 5 5 8 12 16 18 21 24 28 31 31 30 30 32 32 29 28 29 28 29 29 27 26 26 27 28 29 29 29 27 27 27 25 24 24 22 21 19 17 15 15 14 13 12 12 13 13 12 10 10 10 9 9 11 12 12 11 11 9 8 7 8
3 5 5 4 4 4 3 3 3 3 4 5 4 1 2 2 4 7 3 2 1 7 11 10 9 9 8 7 6 7 6 6 5 5 5 3 2 4 10 16 20 23 26 30 31 28 23 20 21 20 17 17 17 13 15 18 18 23 26 26 29 31 30 29 28 27 28 27 26 25 24 22 20 18 17 15 14 14 13 12 13 13 12 10 9 10 9 9 9 11 12 12 12 10 9 9 8
3 2 6 2 4 6 3 3 6 4 1 3 3 1 4 3 4 5 4 6 5 8 11 12 11 8 8 7 6 6 6 5 5 5 5 4 4 3 3 10 17 22 25 25 21 15 12 12 14 17 18 21 22 18 18 17 12 16 24 26 29 33 32 30 29 29 29 28 27 26 25 22 21 20 18 17 16 14 13 12 13 13 12 10 9 9 9 8 8 9 10 10 10 9 9 9 8
2 2 3 4 5 7 4 3 2 3 3 3 2 2 4 3 3 4 6 7 7 9 10 11 11 9 9 8 6 6 6 5 5 5 5 4 5 6 5 1 6 13 16 14 11 11 13 14 13 13 14 18 21 22 26 25 17 15 21 28 30 33 33 31 30 31 31 29 27 27 26 24 23 21 19 18 17 14 12 11 12 13 13 11 10 9 8 7 6 7 7 7 7 7 6 7 7
3 1 3 2 2 4 4 2 2 4 2 4 2 3 3 2 2 4 3 5 5 8 10 9 9 9 9 7 7 7 7 6 6 6 5 4 5 8 9 9 6 7 11 14 16 16 18 19 17 15 15 17 18 19 23 24 20 21 24 29 31 31 33 32 30 32 32 31 29 28 27 26 25 23 21 20 18 15 13 11 11 12 13 12 11 9 7 5 5 5 5 4 4 4 3 4 5
5 4 3 3 3 1 1 2 1 1 1 4 3 1 1 2 4 4 1 6 3 4 7 8 8 8 8 7 7 7 7 6 6 6 6 5 7 11 13 12 12 15 17 20 22 22 22 23 23 20 17 17 18 21 25 26 27 29 28 29 29 29 32 33 30 31 32 31 31 30 29 28 26 25 22 21 20 17 14 12 11 11 12 12 11 9 7 5 4 4 4 3 2 2 0 1 2
3 2 2 2 4 3 1 2 3 3 2 3 3 3 2 3 5 4 5 5 3 4 5 5 5 4 4 5 5 5 5 6 6 6 7 7 9 13 15 13 13 16 19 22 23 25 25 26 29 30 28 24 23 25 26 28 30 30 28 29 30 27 32 35 33 32 32 32 32 31 30 28 27 26 24 22 21 18 16 14 12 12 11 12 11 9 7 6 5 4 3 3 3 3 3 2 1
4 4 3 3 0 2 0 0 2 3 4 2 0 1 3 5 3 4 5 2 6 7 5 5 5 5 4 4 4 4 4 4 5 7 7 7 10 14 15 14 13 14 15 18 20 23 26 25 27 32 30 25 25 28 28 29 31 30 31 31 31 27 32 35 35 33 32 32 32 32 31 29 28 27 25 23 21 19 17 14 13 12 11 11 11 10 9 7 7 7 6 5 6 5 5 5 5
2 1 1 1 2 3 2 2 3 1 4 4 4 1 5 5 2 4 3 2 5 6 7 5 5 7 6 5 5 5 4 4 5 7 6 5 8 13 16 17 16 13 11 12 14 17 22 25 26 27 27 25 28 33 34 32 31 31 31 31 30 30 33 34 35 35 35 34 34 34 32 30 30 28 25 23 22 20 17 14 13 12 10 10 10 9 9 8 8 9 8 8 8 8 8 8 8
Wind_Direction
283 114 24 337 319 334 339 97 84 310 96 244 256 225 261 243 263 315 297 288 85 16 66 73 62 82 96 103 107 88 49 54 166 141 168 145 140 150 156 157 154 153 156 158 161 160 162 159 159 157 154 151 149 150 150 148 147 146 143 139 136 134 130 127 127 125 125 124 122 119 119 121 119 118 118 118 117 115 112 108 108 109 111 109 105 100 99 105 106 104 103 103 98 91 96 103 109
205 278 337 333 316 357 261 120 93 339 64 309 258 186 253 286 290 279 274 110 106 150 102 85 79 86 103 116 115 84 47 32 89 101 106 120 129 144 152 155 154 154 155 157 160 159 159 159 159 156 153 151 149 150 147 146 146 146 144 141 138 136 132 130 128 126 127 128 127 123 121 120 120 120 120 121 120 119 113 107 108 108 108 108 106 104 108 112 112 110 110 108 97 88 95 106 113
246 287 315 340 321 138 301 45 105 119 86 248 261 237 265 307 271 238 239 136 131 138 98 83 76 81 107 98 64 71 86 75 94 100 113 123 125 137 146 150 151 154 154 156 160 159 159 158 159 155 152 149 149 149 147 146 146 147 146 144 141 138 135 133 130 130 130 132 132 127 124 121 120 121 122 124 124 122 116 111 109 108 109 108 108 109 113 113 109 109 108 106 96 86 95 106 113
263 290 308 354 45 44 47 70 144 128 151 229 271 267 253 294 283 243 240 180 150 134 97 86 65 1 72 89 76 75 101 110 109 111 115 126 131 140 146 149 152 154 154 156 159 158 158 158 157 152 148 147 148 149 148 148 148 148 148 148 145 142 139 135 133 133 132 134 133 130 126 122 122 120 121 124 125 124 120 117 114 116 116 112 113 116 116 112 109 107 103 100 96 84 97 114 116
279 298 284 198 91 5 90 110 146 132 207 207 229 255 265 287 277 255 257 311 100 114 111 109 95 17 61 87 120 99 115 127 118 106 101 123 138 146 150 152 153 153 153 155 157 157 156 155 152 146 143 144 146 148 148 149 149 150 150 151 149 147 143 138 137 135 135 135 134 132 129 127 124 119 119 122 124 126 125 124 124 123 119 119 124 124 117 113 111 108 102 97 98 84 96 123 122
319 337 266 175 160 233 102 196 213 223 236 183 220 259 283 293 276 265 293 26 45 100 114 106 119 118 77 60 41 104 146 133 116 114 116 131 145 149 150 150 151 151 152 153 157 156 151 152 149 141 140 142 145 146 149 150 151 151 152 153 152 150 146 142 140 137 136 137 137 135 134 131 125 120 119 120 122 125 128 129 131 129 124 126 132 129 120 117 115 112 109 102 103 89 93 125 129
342 0 102 90 318 352 109 201 216 242 246 180 220 268 273 285 284 302 324 51 60 69 96 111 129 112 77 87 47 39 124 127 129 133 131 138 147 146 146 148 148 149 152 154 157 155 150 151 148 140 139 141 143 146 150 152 152 152 153 154 154 153 148 145 142 139 139 140 141 138 137 132 126 121 119 120 122 125 128 129 132 134 134 134 136 134 128 125 122 120 115 103 100 91 91 121 137
345 350 147 83 11 12 117 239 234 221 258 236 232 257 254 269 279 262 247 90 91 70 80 122 123 93 32 67 83 37 97 123 134 134 134 137 142 143 147 149 149 149 152 155 156 154 149 150 147 140 139 140 142 146 150 152 153 153 153 154 154 154 150 148 144 142 143 145 144 142 139 133 129 124 121 122 123 126 127 127 128 132 136 138 138 138 139 136 131 123 111 101 99 93 89 110 140
354 210 347 89 99 338 239 264 267 236 271 287 276 265 251 249 266 231 161 64 103 106 105 180 105 95 104 79 92 75 98 125 133 133 135 137 142 145 149 152 151 150 152 154 155 152 147 150 147 141 140 140 142 145 149 150 152 152 152 154 154 154 152 150 148 146 147 149 147 144 140 135 133 126 123 122 123 126 126 125 125 129 133 137 141 141 145 143 135 121 110 110 107 100 94 105 134
17 186 335 99 97 320 287 269 273 270 264 276 276 268 257 227 245 247 99 94 109 102 94 103 85 111 124 98 95 96 120 131 132 134 139 141 144 147 150 154 154 153 153 154 154 152 148 150 148 143 141 140 142 145 148 149 151 152 152 153 154 154 154 154 151 149 150 151 149 146 141 138 136 128 123 121 123 126 125 126 126 129 131 135 139 141 145 142 134 124 120 119 112 105 103 109 131
10 310 120 90 48 258 260 266 275 275 277 286 280 274 259 202 200 17 72 100 114 117 125 87 86 111 104 94 81 109 131 133 134 139 144 143 144 147 150 155 158 157 156 155 155 153 151 153 152 147 143 143 146 147 149 150 151 151 152 154 155 156 156 156 153 151 152 152 151 147 144 140 136 128 122 120 124 127 127 129 129 132 133 134 137 139 141 138 133 127 126 123 116 110 106 113 132
43 308 70 103 198 217 225 234 276 279 290 291 280 291 213 134 120 79 74 96 129 141 172 129 124 122 90 90 92 125 138 137 139 143 146 143 142 146 150 155 158 159 158 157 157 156 157 159 158 152 147 148 149 150 149 149 151 152 154 155 156 158 158 157 155 151 151 153 154 151 148 145 140 134 128 126 129 132 132 131 133 135 133 133 136 139 137 133 127 124 127 125 122 116 110 111 129
159 220 94 131 209 217 256 245 276 289 304 284 271 300 18 95 115 149 101 86 122 139 222 132 141 121 95 114 115 155 148 144 146 145 148 147 145 147 150 154 156 159 160 160 159 160 163 164 162 156 153 154 152 150 147 148 151 153 155 156 157 158 159 158 156 153 154 156 157 156 154 152 148 143 142 141 140 142 139 137 137 135 132 133 136 140 137 130 124 124 130 130 130 125 115 109 121
186 192 122 242 258 240 271 257 279 313 303 275 290 306 317 50 138 135 99 71 51 103 82 118 130 102 108 128 100 200 148 146 149 146 149 149 150 150 152 155 155 158 161 162 162 163 166 167 165 160 158 156 152 147 146 150 152 155 157 156 155 158 159 158 157 157 159 162 161 161 159 156 154 155 158 159 151 151 149 144 140 137 135 136 137 139 138 132 132 135 134 136 140 133 122 114 118
187 206 111 196 291 290 259 229 283 346 293 273 288 317 6 2 295 71 100 101 44 113 105 117 133 98 145 162 149 197 148 142 144 141 144 147 152 151 152 154 153 156 159 163 165 167 169 169 167 164 162 155 150 146 148 152 155 158 155 152 155 160 161 158 161 163 165 168 167 163 159 156 159 169 179 181 169 159 157 151 146 143 141 140 136 135 139 138 143 146 139 140 142 138 131 123 122
178 131 85 209 254 263 242 213 291 314 278 275 282 1 54 341 344 58 93 122 122 147 121 170 221 131 165 170 154 160 143 139 138 135 136 140 146 147 149 150 149 152 158 165 168 170 172 171 171 169 164 157 151 149 151 154 159 159 152 153 159 164 164 162 167 169 171 172 170 165 161 164 169 180 193 199 191 177 171 167 162 156 150 147 144 138 142 149 156 156 144 141 139 137 135 131 129
152 114 171 239 230 230 230 215 289 278 291 292 297 346 78 344 348 63 53 92 121 146 72 75 14 123 153 155 145 144 136 137 137 133 131 133 139 140 144 145 145 151 161 169 170 172 175 176 175 172 167 160 154 154 158 159 160 157 153 159 164 169 168 165 169 173 178 178 174 170 169 175 178 185 193 199 199 198 195 187 178 169 163 155 157 158 152 160 167 166 154 144 138 135 135 136 134
130 132 193 230 226 223 201 165 281 306 308 299 299 336 84 42 324 89 73 70 89 74 52 70 61 72 118 131 138 136 132 136 137 133 131 134 138 141 144 146 150 158 166 170 171 174 179 180 179 175 168 162 159 160 162 162 160 157 161 169 170 169 161 159 170 179 189 191 184 174 179 184 188 194 196 199 197 199 202 200 196 180 172 167 170 172 163 169 175 175 166 153 145 140 140 140 138
152 158 203 231 217 227 229 209 279 296 292 296 294 316 66 136 256 116 96 101 95 83 59 75 84 87 109 125 132 133 132 134 136 136 136 139 145 148 148 152 160 164 166 168 172 179 182 182 181 177 169 164 164 165 165 164 162 161 167 173 170 162 156 170 186 192 192 196 198 188 191 193 195 200 199 203 200 199 205 203 203 193 189 183 177 177 170 172 179 182 176 166 162 159 157 150 144
191 176 220 249 223 243 267 234 254 264 261 302 301 315 31 267 269 79 114 118 108 120 128 111 117 126 129 130 134 137 136 135 138 140 139 142 149 153 153 162 169 167 165 167 173 181 183 183 183 178 170 166 167 170 170 168 166 164 168 171 171 167 175 191 199 204 194 191 205 203 200 199 203 206 201 208 211 208 205 197 200 200 204 201 183 180 179 175 177 184 184 184 184 181 176 165 153
217 179 204 242 215 240 266 238 239 265 251 198 296 332 354 316 338 97 126 108 107 164 162 152 146 143 141 146 148 145 141 139 141 141 140 142 148 154 159 169 174 170 163 164 173 180 183 184 184 180 172 170 175 177 175 174 169 164 170 175 176 183 194 202 204 209 204 193 200 208 207 204 209 212 203 207 220 220 203 189 196 205 206 204 194 188 186 181 180 185 189 192 191 185 175 165 156
248 236 226 241 214 228 262 249 245 263 259 220 254 1 335 322 349 120 140 137 196 199 175 156 149 151 153 156 154 148 146 146 145 143 142 143 148 153 162 173 175 171 163 164 172 178 184 185 184 182 177 178 184 186 185 179 172 171 180 181 180 195 205 208 210 213 215 204 196 202 207 206 210 213 206 202 210 216 208 192 192 207 208 202 201 196 190 188 187 187 187 190 190 185 174 164 156
238 268 253 251 227 225 260 267 246 237 236 290 246 159 356 349 331 297 163 180 203 185 160 150 150 152 150 148 148 151 154 153 151 151 149 147 151 155 164 176 175 170 167 169 172 175 182 186 186 184 180 183 189 195 192 171 165 177 192 190 190 206 210 214 224 221 219 211 198 199 205 207 209 211 209 209 205 190 204 205 197 207 206 201 204 195 191 194 191 183 176 178 182 181 175 173 176
208 256 259 252 231 228 248 242 236 227 202 248 244 349 292 196 284 299 282 231 177 145 140 141 140 137 137 141 147 153 155 156 158 158 155 154 158 161 168 177 176 170 170 173 174 177 182 183 183 183 182 187 192 199 189 163 162 182 198 200 200 211 213 215 225 224 223 216 202 202 207 210 212 210 207 217 221 199 204 210 202 206 204 201 201 191 193 197 191 180 170 170 174 177 178 192 216
211 237 251 251 241 234 240 233 233 238 235 241 241 306 272 206 144 69 2 115 134 131 133 132 129 132 140 148 149 151 155 160 160 158 159 160 162 165 170 175 173 168 168 171 173 175 178 178 176 178 184 190 192 192 181 171 175 183 191 198 201 209 214 220 226 228 231 220 204 207 209 211 215 212 203 211 223 212 205 210 207 206 202 198 197 193 198 200 191 179 174 174 173 178 182 186 182
219 225 246 248 253 252 251 255 238 232 240 244 264 285 272 168 100 29 339 121 127 126 129 132 136 144 150 153 152 150 156 160 161 169 169 165 164 166 170 171 170 168 164 165 168 167 169 173 173 172 180 190 189 180 175 177 181 180 186 191 199 209 219 228 232 233 238 223 207 213 215 215 219 215 206 208 218 210 202 206 209 207 204 202 204 205 204 205 197 184 182 182 179 182 180 172 166
239 239 252 240 248 258 254 285 275 262 262 230 222 263 276 133 108 9 277 158 137 130 134 143 145 150 152 148 144 143 154 161 173 182 175 166 165 166 168 171 170 164 160 161 164 165 168 173 171 165 170 181 181 176 173 172 170 176 184 185 191 206 221 234 234 232 238 227 214 219 221 219 221 217 210 208 216 214 200 198 204 207 207 204 209 217 216 212 209 204 200 192 191 194 185 179 175
290 266 269 261 273 283 255 294 286 289 285 243 215 260 303 3 123 181 194 175 156 144 148 157 153 154 146 138 137 142 157 169 176 180 175 168 165 165 170 173 169 159 158 161 162 166 173 174 165 158 163 172 176 176 174 170 159 161 168 168 170 183 201 220 229 230 231 227 220 221 221 220 221 215 207 207 217 221 202 192 198 203 206 204 208 220 220 210 211 215 211 202 206 206 194 188 185
289 257 253 291 337 313 273 253 268 267 274 256 133 330 317 322 231 186 168 166 170 153 153 161 158 149 135 137 142 141 160 171 168 167 173 171 168 170 170 167 160 155 158 160 161 165 169 170 165 165 168 170 174 169 165 171 158 152 153 151 154 161 173 198 219 224 225 220 212 213 213 214 216 212 208 210 215 213 199 192 197 198 204 206 209 214 206 200 206 209 207 206 210 207 198 192 190
293 291 175 309 355 307 272 216 252 266 260 223 109 316 283 276 240 181 166 162 167 157 157 162 151 140 138 148 145 143 164 168 156 157 167 167 174 171 151 138 146 152 163 160 158 161 163 166 165 167 167 167 168 156 150 157 156 151 149 148 152 161 170 188 208 212 216 209 201 206 206 201 202 208 212 214 215 205 192 188 188 188 195 198 201 202 194 194 200 197 194 197 198 197 196 193 194
316 336 20 6 350 276 279 254 242 264 260 157 131 228 255 262 228 177 179 167 163 162 167 165 150 146 151 154 145 154 170 171 164 156 149 153 178 166 140 148 157 160 184 169 158 158 160 159 155 155 156 158 157 149 146 149 150 148 149 150 151 167 174 183 197 203 209 200 197 206 202 193 192 198 205 211 219 209 194 185 178 181 188 186 190 197 194 193 193 187 185 185 182 182 185 186 191
352 338 325 344 225 264 293 268 203 215 259 144 145 221 258 262 239 190 187 174 166 166 172 165 152 154 159 160 152 158 168 167 160 147 151 166 180 165 151 160 164 166 179 165 155 154 154 153 150 148 149 152 151 146 143 141 139 138 148 151 151 167 172 177 182 196 209 197 190 192 188 189 190 192 195 198 209 211 199 187 180 185 190 185 187 192 192 191 190 186 183 182 180 177 181 183 187
352 99 266 292 249 292 318 291 225 202 240 201 178 213 258 271 250 191 177 177 172 164 171 164 158 164 164 164 155 151 152 155 152 147 163 174 175 167 158 157 163 166 164 155 151 152 151 155 159 157 154 156 157 154 149 143 138 135 144 144 138 145 152 161 166 179 200 194 187 180 176 186 193 194 191 188 195 209 207 194 189 193 193 192 191 190 189 189 191 191 184 185 188 184 184 187 186
322 1 275 264 234 265 292 290 272 199 205 227 212 209 227 278 266 180 162 176 175 162 169 168 165 167 164 166 152 146 149 154 155 153 164 169 166 167 160 155 160 159 157 155 155 155 154 158 163 163 160 161 160 156 149 143 140 138 140 141 130 117 121 136 144 154 173 175 176 172 167 174 184 186 184 184 193 208 212 201 198 197 195 198 198 194 190 189 193 197 192 190 196 197 196 197 195
242 282 294 279 254 252 254 267 261 173 189 218 211 217 234 283 287 204 165 171 173 168 168 165 164 160 164 171 152 150 155 158 162 157 159 162 164 168 164 161 160 157 158 160 160 159 158 159 162 161 162 161 155 148 142 138 139 141 143 145 136 119 118 125 123 131 142 146 154 156 157 163 167 165 168 179 192 202 205 200 200 197 196 200 202 200 194 191 193 199 202 200 198 201 204 204 199
212 231 208 227 263 263 249 257 240 162 170 208 195 208 225 266 263 242 206 167 166 167 159 151 157 158 168 177 159 154 158 161 163 157 156 160 167 170 169 168 163 159 162 164 164 165 164 163 164 164 163 160 153 148 146 146 145 140 138 139 136 127 120 117 114 120 128 134 139 140 147 160 169 166 164 175 188 196 198 197 195 190 194 203 208 208 200 196 198 196 202 204 196 189 189 194 197
230 227 210 234 258 278 278 275 239 158 159 204 197 200 219 259 251 254 307 133 150 152 150 154 159 162 172 174 161 148 155 166 159 157 158 161 167 169 170 170 165 160 164 168 168 169 171 171 170 169 166 163 161 159 156 156 152 141 138 139 137 133 125 117 113 115 123 129 133 138 141 149 166 169 167 174 182 188 190 189 188 185 195 206 213 219 213 208 211 205 202 200 191 185 183 189 201
235 117 1 308 296 284 292 294 229 152 153 203 184 165 207 277 276 277 60 119 157 157 156 165 162 165 172 164 154 144 154 168 156 159 162 163 167 169 170 171 166 163 166 170 171 171 175 177 177 174 170 169 170 169 165 160 153 147 145 143 140 134 127 120 115 114 118 121 124 130 131 132 146 156 157 164 173 179 179 178 185 194 200 205 211 219 221 218 215 206 200 195 188 191 195 193 195
162 69 32 315 297 296 305 321 349 95 123 211 179 150 217 253 264 266 184 138 193 178 163 167 160 160 169 161 154 152 162 169 162 166 165 167 172 171 171 173 172 172 173 174 174 174 176 179 180 179 175 174 176 175 171 163 157 156 150 144 142 136 130 128 124 121 123 121 122 126 126 129 137 147 152 156 163 171 173 170 178 191 199 206 212 218 221 220 215 203 197 195 193 200 204 203 204
30 330 358 290 288 311 306 323 338 357 123 178 166 118 278 294 302 280 265 132 194 208 174 166 162 165 173 172 164 161 168 170 166 170 170 172 176 174 175 177 177 176 175 174 174 174 177 179 181 181 178 177 177 176 173 167 163 159 148 142 140 135 132 135 132 129 130 126 126 130 134 134 132 137 146 152 158 166 168 163 166 177 190 203 213 220 221 220 218 212 205 201 201 206 209 208 216
301 228 198 230 256 259 260 289 325 341 20 106 91 39 324 335 7 305 320 96 157 208 190 169 173 174 171 170 169 168 169 169 168 174 177 174 177 181 180 179 180 178 177 175 174 175 177 180 182 182 180 179 181 181 178 174 165 153 143 138 134 130 130 136 135 131 132 129 124 123 128 132 128 124 122 126 141 156 164 164 163 170 180 192 205 217 221 222 220 214 210 207 208 212 211 202 207
308 254 207 207 208 232 270 300 10 27 349 329 75 45 296 318 335 275 309 23 156 180 189 186 184 169 161 166 171 176 175 172 171 172 175 176 180 184 181 179 179 180 180 176 175 177 178 180 181 181 180 181 183 186 185 176 164 156 150 143 138 135 135 138 138 134 133 131 125 121 121 128 134 127 114 110 117 130 144 157 163 171 179 181 185 188 190 196 198 200 204 207 213 215 207 198 194
292 253 201 192 182 190 248 275 57 89 263 286 75 117 257 314 313 269 270 102 195 195 195 201 187 166 172 177 173 177 179 175 169 168 177 182 184 183 180 180 180 181 181 175 175 177 178 179 180 178 179 182 186 189 185 174 165 163 161 155 150 147 144 141 138 134 131 129 125 122 119 119 124 121 112 109 112 118 124 130 133 145 162 164 154 146 148 156 163 170 173 184 203 210 205 197 187
230 246 190 186 177 156 194 182 112 205 228 316 13 109 160 302 286 283 325 85 223 208 197 208 195 184 183 183 183 183 182 179 172 175 184 186 187 186 181 180 181 182 179 174 175 176 177 178 178 175 176 183 187 184 179 174 169 166 164 162 159 155 148 143 141 137 133 131 125 123 122 119 115 108 104 105 111 115 113 113 112 115 124 130 128 123 126 140 147 146 141 146 166 183 194 191 182
238 235 203 211 184 140 131 117 107 292 244 309 313 97 115 273 275 309 325 309 271 233 219 208 192 191 189 187 191 188 183 182 173 174 183 185 191 193 187 180 179 180 181 179 177 177 178 178 177 175 177 183 184 177 175 174 170 167 166 165 160 154 148 145 144 140 137 134 129 127 127 126 121 110 105 104 107 111 109 108 107 109 113 118 118 114 114 118 119 123 124 123 125 124 127 139 152
242 215 221 283 83 107 100 103 100 45 65 253 273 256 153 269 285 313 321 279 262 247 238 222 191 187 190 189 182 164 149 161 159 164 178 189 196 197 191 182 179 181 184 182 179 178 179 179 177 176 179 184 181 175 174 171 169 167 166 163 157 153 151 149 147 143 142 139 135 134 132 131 131 124 115 110 109 111 112 111 108 108 112 116 115 112 112 111 107 108 108 111 114 110 110 112 115
240 230 291 359 18 23 57 72 82 65 354 256 257 248 176 272 287 270 249 249 247 213 144 179 189 173 176 179 167 152 140 148 151 147 160 176 194 198 192 185 184 185 185 184 183 182 181 181 180 180 182 185 181 177 174 170 169 170 167 164 161 159 157 154 152 149 150 148 144 143 139 136 136 134 129 123 118 117 117 114 109 108 112 115 116 113 115 117 112 108 107 110 113 112 111 108 105
83 82 75 55 357 359 24 2 39 83 268 259 261 274 128 200 267 257 257 265 240 161 139 160 168 151 155 158 155 150 141 143 139 127 138 156 174 185 185 186 191 190 188 189 187 185 184 183 183 182 183 184 181 179 177 173 174 175 172 171 169 166 163 160 157 156 158 157 153 149 147 143 139 136 135 133 132 129 124 116 111 109 108 108 109 110 114 117 118 115 115 117 116 114 114 110 108
76 91 79 81 9 6 14 323 358 152 241 255 279 356 120 222 249 247 280 302 285 134 137 146 131 116 119 127 134 139 136 134 129 124 137 156 166 177 181 183 190 194 195 195 193 189 186 184 185 184 186 188 186 184 181 178 178 177 174 176 175 171 169 166 162 163 164 163 159 156 153 150 146 144 141 139 141 142 135 126 118 112 106 103 104 105 105 106 108 108 110 116 117 117 115 114 114
124 133 105 113 115 74 281 274 299 251 262 277 289 256 239 294 271 240 269 309 305 128 120 115 110 103 97 92 90 105 116 119 117 115 122 140 162 181 187 187 192 199 201 201 200 195 188 185 185 184 184 186 185 185 184 181 179 177 176 178 179 176 174 172 169 169 170 169 166 163 161 157 154 152 149 145 145 145 141 134 127 121 114 110 109 109 105 102 103 101 100 103 104 106 107 109 114
193 167 129 134 146 146 198 224 193 228 262 291 314 286 208 248 265 262 287 356 109 123 115 108 101 98 98 90 84 90 92 94 95 87 86 89 113 173 194 199 200 202 204 206 207 202 191 182 181 177 165 165 170 169 169 176 181 180 180 182 184 182 180 179 178 176 175 176 174 169 166 163 158 156 154 151 148 147 146 143 140 136 129 123 119 116 110 103 100 96 95 96 93 94 98 103 109
261 141 104 137 176 156 162 186 182 180 181 294 312 253 213 213 257 297 49 83 99 108 110 110 110 110 107 101 95 98 95 89 88 80 63 24 14 42 190 208 210 211 210 210 208 197 172 158 167 169 160 164 173 168 163 179 199 189 187 192 191 187 185 184 184 182 181 182 180 174 170 165 160 157 157 156 154 151 147 146 150 148 142 134 131 130 119 105 100 97 95 94 89 87 89 94 101
272 72 130 220 176 134 128 205 202 94 106 266 276 239 286 321 315 356 74 111 115 108 114 116 123 128 121 124 126 119 115 104 100 97 76 36 23 35 46 78 213 215 210 200 187 177 165 151 145 148 150 155 160 162 167 180 200 210 203 200 196 192 189 188 189 187 186 188 187 181 174 168 162 160 160 160 160 158 152 147 148 150 148 143 136 136 130 116 111 109 105 98 91 88 82 85 91
111 132 204 218 75 86 104 139 355 53 115 271 271 212 280 314 276 336 70 156 144 120 131 130 135 139 130 138 144 136 136 130 126 124 113 102 71 59 61 63 82 146 166 164 159 160 160 154 142 130 129 134 139 154 166 175 201 227 219 202 199 200 193 191 195 194 191 192 192 187 180 173 168 164 162 162 162 162 160 155 149 148 151 153 148 145 143 137 129 124 123 115 101 99 80 76 84
127 174 187 100 91 320 17 112 150 107 176 282 293 255 266 184 233 297 220 203 198 133 139 133 139 147 138 142 142 134 134 124 115 103 91 86 65 59 65 76 98 122 141 148 144 139 142 151 157 156 157 160 168 184 187 188 207 229 227 205 201 208 201 195 196 198 197 197 196 192 186 180 174 169 166 164 165 166 164 162 158 153 154 159 159 158 160 164 159 147 148 155 143 144 130 58 84
33 63 32 61 141 177 213 145 153 151 171 261 309 352 328 233 234 272 278 247 191 141 136 120 115 114 115 130 130 122 115 102 99 91 80 73 62 60 65 77 107 131 143 149 150 154 157 161 171 183 192 190 185 190 192 193 207 231 237 210 198 208 208 200 196 198 202 202 201 198 191 185 181 176 172 168 168 168 166 163 161 159 160 164 167 169 172 179 186 192 199 204 211 219 243 260 244
354 15 345 310 74 119 183 71 124 130 137 179 174 2 282 262 265 310 318 263 169 153 140 127 123 112 101 108 113 108 100 97 97 89 85 84 75 72 72 80 107 135 152 160 165 169 172 176 184 192 195 186 181 188 191 194 207 230 236 210 195 207 213 204 198 198 203 206 206 203 196 191 186 182 179 176 174 172 168 164 162 161 163 166 172 176 181 189 196 208 221 224 230 238 245 249 246
150 74 309 260 128 107 99 321 307 115 129 161 153 170 269 270 294 336 6 130 170 151 123 121 136 140 137 134 134 129 114 103 91 78 73 82 86 84 82 83 96 116 141 166 174 173 177 186 191 193 193 187 186 191 194 199 209 221 220 203 194 203 209 206 200 198 201 206 208 207 201 195 190 188 186 182 179 176 172 167 164 163 163 167 173 181 189 197 204 213 224 228 231 239 246 247 244